This demonstration page uses our WeatherBlox Daily Observations layout. Learn more.

Left ArrowRight Arrow

34.16533, -84.80231

Hourly Observations for August 6, 2019

Temp ( °F °C ) Dew Point ( °F °C ) Humidity (%) Winds ( mph kmh ) Pressure ( in mb ) Visibility ( mi km ) Precip ( " mm )
12:53 am 00:53 Clear 73 22.8 71 21.7 94 94 Calm 29.92 1013 8 13 0.00 0.00
1:53 am 01:53 Clear with Mist and Fog 73 22.8 71 21.7 94 94 Calm 29.91 1013 5 8 0.00 0.00
2:53 am 02:53 Clear with Mist and Fog 71 21.7 69 20.6 94 94 Calm 29.92 1013 6 10 0.00 0.00
3:53 am 03:53 Clear with Mist and Fog 71 21.7 69 20.6 94 94 Calm 29.92 1013 6 10 0.00 0.00
4:53 am 04:53 Clear 71 21.7 69 20.6 94 94 Calm 29.92 1013 8 13 0.00 0.00
5:53 am 05:53 Clear with Mist and Fog 70 21.1 68 20 93 93 Calm 29.92 1013 6 10 0.00 0.00
6:53 am 06:53 Clear with Mist and Fog 69 20.6 67 19.4 93 93 Calm 29.92 1013 6 10 0.00 0.00
8:37 am 08:37 Mostly Sunny 73 22.8 71 21.7 94 94 Calm 29.97 1015 7 11 0.00 0.00
8:53 am 08:53 Mostly Cloudy 73 22.8 71 21.7 94 94 Calm 29.95 1014 7 11 0.00 0.00
9:42 am 09:42 Partly Cloudy 75 23.9 71 21.7 88 88 Calm 29.97 1015 9 14 0.00 0.00
9:53 am 09:53 Mostly Sunny 75 23.9 72 22.2 90 90 Calm 29.95 1014 9 14 0.00 0.00
10:53 am 10:53 Mostly Sunny 80 26.7 73 22.8 79 79 Calm 29.95 1014 9 14 0.00 0.00
11:53 am 11:53 Sunny 85 29.4 73 22.8 68 68 VRB 3 6 29.96 1014 10 16 0.00 0.00
12:53 pm 12:53 Sunny 87 30.6 70 21.1 57 57 VRB 5 7 29.94 1014 10 16 0.00 0.00
1:53 pm 13:53 Sunny 89 31.7 70 21.1 53 53 VRB 3 6 29.92 1013 10 16 0.00 0.00
2:53 pm 14:53 Sunny 90 32.2 68 20 48 48 VRB 3 6 29.90 1013 10 16 0.00 0.00
3:53 pm 15:53 Sunny 91 32.8 61 16.1 37 37 VRB 6 9 29.89 1012 10 16 0.00 0.00
5:53 pm 17:53 Sunny 89 31.7 66 18.9 47 47 Calm 29.86 1011 10 16 0.00 0.00
6:53 pm 18:53 Sunny 83 28.3 72 22.2 70 70 Calm 29.85 1011 10 16 0.00 0.00
7:53 pm 19:53 Sunny 79 26.1 72 22.2 79 79 Calm 29.86 1011 10 16 0.00 0.00
8:53 pm 20:53 Clear 77 25 72 22.2 85 85 Calm 29.87 1012 10 16 0.00 0.00
9:53 pm 21:53 Clear 74 23.3 70 21.1 88 88 Calm 29.88 1012 10 16 0.00 0.00
10:53 pm 22:53 Clear 72 22.2 69 20.6 91 91 Calm 29.90 1013 10 16 0.00 0.00
11:53 pm 23:53 Clear 72 22.2 69 20.6 91 91 S 3 6 29.90 1012 10 16 0.00 0.00

Powered by AerisWeather